Regional Weather Roundup
Issued by NWS Wakefield, VA

Home | Current Version | Previous Version | Graphics & Text | Print | Product List | Glossary On
Versions: 1 2 3 4 5 6 7 8 9 10 11 12 13 14 15 16 17 18 19 20 21 22 23 24 25 26 27 28 29 30 31 32 33 34 35 36 37 38 39 40 41 42 43 44 45 46 47 48 49 50
000
ASUS41 KAKQ 262015
RWRAKQ

REGIONAL WEATHER ROUNDUP
NATIONAL WEATHER SERVICE WAKEFIELD VA
400 PM EDT TUE MAY 26 2015

Note: "fair" indicates few or no clouds below 12,000 feet with no
significant weather and/or obstructions to visibility. * = Denotes
station may not report precipitation (e.g., rain,snow,etc.),
thunder or fog.

VAZ042-051-052>054-056-262100-
NORTHERN VIRGINIA

CITY           SKY/WX    TMP DP  RH WIND       PRES   REMARKS
WASH NATIONAL  CLOUDY    87  66  49 S15       30.16F
DULLES         PTSUNNY   85  66  53 S9        30.16F
FORT BELVOIR   MOSUNNY   86  67  53 S8        30.16F
QUANTICO       PTSUNNY   81  70  69 S12       30.17F
FREDERICKSBRG* MOSUNNY   88  67  49 S12       30.17F
STAFFORD*      MOSUNNY   86  64  47 S7        30.21F
WARRENTON      PTSUNNY   88  70  55 S8        30.16F
CULPEPER*      PTSUNNY   84  67  56 S6        30.16F
MANASSAS*      MOSUNNY   88  68  51 S10       30.16F
LEESBURG*      PTSUNNY   88  68  51 S8        30.17F
WINCHESTER     PTSUNNY   86  59  39 SE6       30.17F
FRONT ROYAL*   FAIR      82  68  61 SE3       30.16F
LURAY*         FAIR      88  63  42 SW6       30.17F
$$

VAZ048-049-060>072-079>083-262100-
CENTRAL AND SOUTH CENTRAL VIRGINIA

CITY           SKY/WX    TMP DP  RH WIND       PRES   REMARKS
RICHMOND       PTSUNNY   86  65  49 S14       30.20F
CHESTERFIELD*  NOT AVBL
PETERSBURG*    MOSUNNY   85  71  60 S7        30.21F
HANOVER        PTSUNNY   83  66  56 S12G18    30.21F
TAPPAHANNOCK*  MOSUNNY   87  60  40 S9G17     30.21F
QUINTON*       FAIR      84  66  54 S7        30.21F
CHARLOTTSVILLE MOSUNNY   87  66  49 SW12      30.16F
GORDONSVILLE*  MOCLDY    84  69  59 S5        30.16F
ORANGE*        MOSUNNY   86  68  54 S7        30.18F
LOUISA*        MOSUNNY   86  68  54 S8        30.18F
BUMPASS*       FAIR      84  68  57 SW7       30.19F
FARMVILLE*     MOSUNNY   85  66  52 S9        30.18F
CREWE*         MOCLDY    85  67  55 S5        30.21F
FORT PICKETT*  NOT AVBL
CHASE CITY*    CLOUDY    87  70  56 S5        30.21F
CLARKSVILLE*   CLOUDY    82  66  57 S6        30.21F
SOUTH HILL*    CLOUDY    83  66  57 S8        30.28F
LAWRENCEVILLE* FAIR      82  66  57 S6        30.22F
EMPORIA*       CLOUDY    86  63  45 SE5       30.23F
$$

VAZ088>098-262100-
SOUTHEAST VIRGINIA

CITY           SKY/WX    TMP DP  RH WIND       PRES   REMARKS
NORFOLK        SUNNY     87  58  37 S13       30.22F
VIRGINIA BEACH PTSUNNY   82  66  58 SE17      30.23F
NORFOLK NAVAL  PTSUNNY   91  59  33 SW10      30.23F
WEST POINT*    MOSUNNY   87  60  39 S10       30.23F
SALUDA*        MOCLDY    82  65  57 S10G18    30.21F
NEWPORT NEWS   SUNNY     88  62  41 S10       30.22F
LANGLEY AFB    SUNNY     85  63  48 SE8       30.21F
FORT EUSTIS    PTSUNNY   83  64  51 S8        30.20F
WILLIAMSBURG*  SUNNY     90  66  45 S9        30.23F
HR EXEC AP*    FAIR      84  63  48 SW10      30.24F
FRANKLIN*      PTSUNNY   84  63  49 S12G17    30.23F
WAKEFIELD      PTSUNNY   85  65  51 VRB5      30.22F
$$

VAZ020-022-025-037-045-262100-
WEST CENTRAL AND SOUTHWEST VIRGINIA

CITY           SKY/WX    TMP DP  RH WIND       PRES   REMARKS
STAUNTON*      MOSUNNY   84  60  44 SW6       30.20F
WAYNESBORO*    CLOUDY    79  66  63 S8        30.20F
HOT SPRINGS VA TSTM      66  65  94 S9        30.31F
LYNCHBURG      MOSUNNY   84  66  54 S14G21    30.21F
DANVILLE       CLOUDY    84  64  50 SW7       30.21F
SOUTH BOSTON*  CLOUDY    85  65  51 MISG      30.21F
MARTINSVILLE   PTSUNNY   85  63  47 SW3       30.23F
ROANOKE        PTSUNNY   84  64  50 S13G22    30.20F
BLACKSBURG     CLOUDY   N/A N/A N/A W7        30.28
DUBLIN*        CLOUDY    72  64  76 NW6       30.26F
MARION*        CLOUDY    74  67  78 CALM      30.26F
HILLSVILLE*    PTSUNNY   76  63  64 S10G16    30.28F
RICHLANDS*     FAIR      80  63  57 S7        30.23F
WISE*          SUNNY     81  57  44 S13G18    30.21F
ABINGDON*      MOSUNNY   82  64  54 SW8       30.19F
$$

MDZ021>025-VAZ099-100-262100-
SOUTHERN MARYLAND AND THE DELMARVA PENINSULA

CITY           SKY/WX    TMP DP  RH WIND       PRES   REMARKS
PATUXENT RIVER PTSUNNY   80  66  62 SE14      30.19F
BAY BRIDGE APT   N/A    N/A N/A N/A S13       30.18F
LEONARDTOWN    MOSUNNY   82  63  51 S10G20    30.21F
DOVER          MOSUNNY   87  69  55 SW15      30.16F
GEORGETOWN     MOSUNNY   85  63  47 S17G23    30.20F
EASTON         MOSUNNY   86  68  54 S15       30.22F
CAMBRIDGE      SUNNY     82  64  54 S13       30.20F
SALISBURY      SUNNY     83  62  49 S15       30.21F
OCEAN CITY     SUNNY     72  63  73 S14G24    30.24F
WALLOPS ISLAND SUNNY     76  66  71 S17G26    30.25F
ACCOMACK*      SUNNY     79  64  61 S17       30.24F
$$

NCZ012>017-030>032-262100-
NORTH CENTRAL AND EASTERN NORTH CAROLINA

CITY           SKY/WX    TMP DP  RH WIND       PRES   REMARKS
ROANOKE RAPIDS CLOUDY    86  64  48 SW10      30.22F
RALEIGH        PTSUNNY   86  67  52 SW9       30.22F
ELIZABETH CITY MOSUNNY   84  66  54 S10       30.25F
AHOSKIE*       MOSUNNY   84  64  51 S5        30.23F
EDENTON*         N/A     84  67  57 S9        30.25F
CURRITUCK*     MOSUNNY   84  61  45 SW8       30.26F
KILL DEVIL HLS SUNNY     79  65  62 S14G21    30.27F
MANTEO         MOSUNNY   78  66  67 S20       30.29F
CAPE HATTERAS  SUNNY     81  64  56 S15       30.31F
TARBORO*       FAIR      87  66  48 S6        30.23F
GOLDSBORO      PTSUNNY   84  70  63 SE10      30.21F
WASHINGTON     MOSUNNY   86  66  51 S7        30.24F
GREENVILLE     MOSUNNY   86  66  51 S9        30.24F
NEW BERN       PTSUNNY   84  68  58 S14       30.27F
WILMINGTON     PTSUNNY   80  70  71 SE12G18   30.26F
$$

VAZ048-262100-
ELSEWHERE

CITY           SKY/WX    TMP DP  RH WIND       PRES   REMARKS
HARRISBURG PA  PTSUNNY   85  62  46 SW8       30.13F
BALTIMORE      PTSUNNY   87  64  46 SW9       30.15F
ANNAPOLIS      SUNNY     78  66  66 S17G24    30.17F
ANDREWS AFB    MOSUNNY   84  67  57 S12       30.17F
PHILADELPHIA   PTSUNNY   87  61  41 SW15      30.16F
HENDERSON NC   PTSUNNY   84  63  48 S7        30.23F
GREENSBORO     PTSUNNY   84  62  47 S9        30.21F
ROCKY MOUNT    SUNNY     88  66  48 SW7       30.22F
$$

VAZ100-262100-
MARINE

STATION/POSITION TIME  TEMP    WIND        PRES    WAVE   SWELL
                       AIR SEA DIR/SP/G            HT/PER HT/PER
                 (UTC) (F)     (DEG/KT/KT) (MB)    (FT/S) (FT/S)
BRANDYWINE LGT   1900   69 66  180/ 18/ 19 1023.0F
CAPE MAY NJ      1900   71 71  160/ 16/ 20 1022.9F
LEWES DE         1900   84 63  210/  9/ 16 1022.7F
15NM E FENWICK I 1950   65 62              1023.7F   3/ 4
OCEAN-CITY-INLET 1900   64 60  210/ 13/ 14 1024.3F
WACHAPREAGUE VA  1900   74 75  180/ 13/ 16 1024.8F
THOMAS POINT MD  2000   72 68  170/ 19/ 20 1022.0F
GOOSES REEF MD   2000   71 68  180/ 16/ 19 1023.1F   2/ 3
COVE POINT MD    1900   70     180/ 19/ 22 1023.6F
SOLOMONS ISLAND  1900      70                N/A
BISHOPS HEAD MD  1900   77 77  180/ 18/ 21 1023.2F
PINEY POINT MD   1900          200/  9/ 10   N/A
CAMBRIDGE MD     1900   82 71  180/  8/ 17 1022.8F
LEWISETTA VA     1900   82 74              1022.7F
RAPPAHANNOCK LGT 1900          170/ 13/ 14 1024.8F
STINGRAY PT      1910   74     160/ 16/ 19 1023.8
YORK RVR RNG VA  1900   72     140/ 14/ 16 1023.4F
YORKTOWN VA      1900   81 71  180/  9/ 12 1023.6F
JAMESTOWN VA     2000   81 76  190/  8/ 12 1022.1F
DOMINION TERM VA 1900   80     190/  2/  3 1024.4F
KIPTOPEKE VA     1900      78  160/ 19/ 21   N/A
CHES BAY BRIDGE  1900   76 68  110/ 11/ 14 1024.0F
CAPE HENRY VA    1900   74     140/ 16/ 23 1023.5F
CHESAPEAKE LGHT  1900   69     150/ 22/ 23 1025.5F
WILLOUBY STN VA  1900   81     190/  9/ 13 1025.0F
CAPE HENRY BUOY  1928      67                N/A     3/ 5
1ST LANDING BUOY 2000      71              1023.5F
CAPE CHARLES BUO 1926      70                N/A     2/ 5   2/12
OFFSHORE WE BUOY 1911      67                N/A     2/ 4   2/ 7
64NM E OF VA BCH 1950   68 65  170/ 12/ 12 1025.6F   3/ 5   2/ 7
DUCK PIER NC     1900   76 64  170/ 19/ 21 1024.2F
44100 DUCK FRF   1924      67                N/A     3/ 5
44056 DUCK FRF   1911      65                N/A     2/ 5
OREGON INLET NC  1900   77 77  170/ 16/ 21 1026.1F
HATTERAS NC      1900   78 75  160/ 12/ 17 1026.2F
DIAMOND SHLS NC  1950   75 77  160/ 16/ 17 1026.2F   3/ 5   2/ 9
CAPE LOOKOUT NC  2000   75     160/ 13/ 14 1025.7F
$$


USA.gov is the U.S. government's official web portal to all federal, state and local government web resources and services.